{"data":{"norad_id":67937,"intl_designator":"2026-037F","name":"STARLINK-36370","alt_names":[],"object_type":"PAYLOAD","status":"ACTIVE","operator":null,"country":"US","launch_date":"2026-02-24","launch_site_code":"AFETR","launch_vehicle":null,"mission":null,"orbit_class":"UNKNOWN","rcs_meters":null,"size_class":null,"mass_kg":null,"dimensions":null,"purposes":["comms"],"wikipedia_slug":null,"has_3d_model":false,"image_url":null,"decayed_at":null,"tle_current":{"epoch":"2026-05-25T05:27:56.813760Z","epoch_age_seconds":49211,"freshness":"FRESH","line1":"1 67937U 26037F   26145.22774090  .00014681  00000+0  54180-3 0  9999","line2":"2 67937  42.9959 118.7058 0000750 277.1810  82.8956 15.27589907 15041","mean_motion":15.27589907,"eccentricity":7.5e-5,"inclination_deg":42.9959,"raan_deg":118.7058,"arg_perigee_deg":277.181,"mean_anomaly_deg":82.8956,"bstar":0.0005418,"rev_number":1504,"period_min":94.266137358029,"perigee_km":482.50484434562,"apogee_km":483.53401781028,"semimajor_km":6861.156431078,"source":"CELESTRAK","updated_at":"2026-05-25T13:38:21.767090Z"}}}